Погода в Зиме

Погода в Зиме : погода сейчас, прогноз погоды и архив. Всё, что Вы хотите узнать о погоде в Зиме!

Поиск расширенной информации на нашем сайте:

Другие новости

Новости СМИ2

Главная страница сайта

Новости сайта

03.07.2017

Напоминаем, что на нашем специализированном сайте Метеоцентр.Азия вы можете получить высокодетализированные автоматические прогнозы погоды по пунктам России, СНГ и мира в авиационном формате (включающие направление и скорость ветра, видимость, явления погоды, количество и форму облачности, нижнюю и верхнюю границу облачности).

Рекомендуем: Воздушная завеса Wing E150

Погода в Зиме - сегодня

Время (UTC), дата Ветер
(°,м/с) 
Видим.   Явления Облачность Т
(°С)
Тd
(°С)
f(%) Тe
(°С)
Pmin
(гПа)
dP
(гПа)
Po
(мм)
O2
(г/м3)
Тmin Tmax R s Состояние
почвы
00 23.09.18 310 (СЗ) 20000 м    ясно 
+1.2 -0.4 89 +2  1022.5  -0.1  725  291  -0.8         
03 23.09.18 170 (Ю) 20000 м    1/0 верхняя 
[Ci fib]
+10.6 +1.1 52 +10  1020.2  -0.4  724  281           
06 23.09.18 110 (В) 20000 м    3/0 верхняя 
[Ci fib]
+15.8 +1.7 38 +17  1017.4  -1.7  723  275           
09 23.09.18 110 (В) 20000 м    8/0 верхняя 
[Ci fib]
+16.2 +1.5 37 +17  1016.2  -1  722  274           
12 23.09.18 тихо ()   н/о    10/0 средняя, верхняя 
[Ac trans|Ci fib]
+9.2 +3.5 67 +9  1017.9  0.3  723  281    +17.1       
15 23.09.18 350 (С) н/о    10/0 верхняя 
[Ci fib]
+5.6 +2.8 82 +6  1018.6  0.1  723  285           
18 23.09.18 тихо ()   н/о    8/0 верхняя 
[Ci fib]
+3.3 +1.9 91 +3  1018.6  -0.4  722  287           
21 23.09.18 тихо ()   н/о    6/0 верхняя 
[Ci fib]
+2 +0.9 92 +2  1018.3  -0.6  722  289           
00 24.09.18 тихо ()   20000 м    10/0 средняя, верхняя 
[Ac trans|Ci fib]
+2.3 +1.5 94 +2  1018.7  0.4  722  288  +1.8         
03 24.09.18 140 (ЮВ) 20000 м    10/0 верхняя 
[Ci fib]
+12.1 +4.8 61 +12  1016.2  -0.4  722  278           
06 24.09.18 110 (В) 20000 м    10/0 верхняя 
[Ci fib]
+17.8 +3.7 39 +19  1014  -1.1  721  272           
09 24.09.18 120 (ЮВ) 20000 м    10/0 верхняя 
[Ci fib]
+18.8 +2.9 35 +20  1013.2  -0.6  721  271           
12 24.09.18 120 (ЮВ) н/о    4/0 верхняя 
[Ci fib]
+11.8 +3.9 58 +13  1014.5  721  278    +18.9       
15 24.09.18 310 (СЗ) н/о    ясно 
+6.3 +4.7 89 +7  1015.7  0.4  721  283           
18 24.09.18 тихо ()   н/о    ясно 
+3.9 +2 87 +4  1015.8  -0.7  720  286           
21 24.09.18 тихо ()   н/о    10/0 верхняя 
[Ci fib]
+2.4 +1.1 91 +2  1015.5  -0.5  720  287           
00 25.09.18 070 (В) 20000 м    10/0 верхняя 
[Ci fib]
+3.8 +2.5 91 +5  1015.3  720  286  +1.6         
03 25.09.18 150 (ЮВ) 20000 м    10/0 верхняя 
[Ci fib]
+12.2 +4.2 58 +13  1013.2  -0.4  720  277           
06 25.09.18 200 (Ю) 20000 м    10/0 верхняя 
[Ci fib]
+17.3 +4.3 42 +19  1011  -1.2  719  272           
09 25.09.18 310 (СЗ) 20000 м    10/0 средняя, верхняя 
[Ac trans|Ci fib]
+14.9 +5.9 55 +15  1012.2  -1.2  719  274           
12 25.09.18 310 (СЗ) н/о    10/0 средняя, верхняя 
[Ac trans|Ci fib]
+12.4 +7.2 71 +13  1014.1  1.4  720  276    +17.7       
15 25.09.18 320 (СЗ) н/о  слаб. ливневой дождь  10/10 600 м кучево-дожд. 
[Cb cap]
+10.4 +7.8 84 +11  1016.3  1.8  722  279           
18 25.09.18 300 (СЗ) н/о  слаб. ливневой дождь  10/10 600 м кучево-дожд. 
[Cb cap]
+8.6 +7.3 92 +9  1017.4  1.8  722  281           
21 25.09.18 тихо ()   н/о  {ливн. осадки}  10/0 кучево-дожд., средняя, верхняя 
[Cb cap|Ac trans|Ci fib]
+7.2 +6.5 95 +7  1017.1  -0.6  722  282           
00 26.09.18 190 (Ю) 0500 м  туман{ливн. осадки}  9/9 600 м кучево-дожд. 
[Cb cap]
+7.4 +6.9 97 +8  1017  722  282  +7.1       
Время (UTC), дата Ветер
(°,м/с) 
Видим.   Явления Облачность Т
(°С)
Тd
(°С)
f(%) Тe
(°С)
Pmin
(гПа)
dP
(гПа)
Po
(мм)
O2
(г/м3)
Тmin Tmax R s Состояние
почвы

Для получения пояснительной информации подведите курсор к названию столбца.

ПОГОДА в Зиме - архив

Всё, что Вы хотите узнать о погоде в Зиме - удобно и подробно!

Выберите нужную дату (начиная с 1 января 2015* года) и нажмите кнопку "Найти".
Будут отображены архивные сводки погоды по пункту Зима, начиная с указанной даты.


Отображать данные в формате CSV (для использования в таблицах Excel)


Внимание! Наш архив погоды предназначен исключительно для личного некоммерческого использования в познавательных целях. Если Вам необходимы официальные справки о состоянии погоды (для производственных, юридических, коммерческих и т.п. целей), обращайтесь в органы Росгидромета.

*Примечание: данная дата относится к архиву по метеостанциям СССР (Россия, СНГ, Балтия).
Архив по метеостанциям Зарубежной Европы и Азии (кроме Китая) хранится 10 дней, по другим регионам земного шара (Китай, Африка, Америка, Австралия, Океания) - 1 день.

Зима - район местоположения метеостанции


Название, широта, долгота, высота метеостанции:
Зима 53.9°ш. 102.1°д. 458 м над ур. моря [Российская Федерация]

Дополнительная информация

В oтличие oт бoльшинства пoгoдных сайтoв мы публикуем пoдрoбную метеoинфoрмацию в детальнoм прoфессиoнальнoм фoрмате.

Характеристики температуры и влажнoсти вoздуха измеряются на высoте 2 м в тени вдали oт зданий и деревьев.
Скoрoсть ветра измеряется на высoте 10 м (на урoвне рoста челoвека скoрoсть ветра ниже в 1.5-2 раза). Если метеoстанция нахoдится в гoрoде или в лесу, тo скoрoсть ветра занижена на 2-4 м/с пo сравнению с oткрытым местoм. Скoрoсть ветра над акватoриями крупных рек и oзёр, а также на вершинах хoлмoв на 2-5 м/с выше, чем в oбычных услoвиях.
Атмoсфернoе давление в разных тoчках местнoсти мoжет значительнo oтличаться oт давления на метеoстанции, в зависимoсти oт услoвий рельефа (при пoдъёме на 10 м давление пoнижается примернo на 1 мм рт.ст.).